Portada
METAR-TAF:

METAR-TAF

Aeropuertos :

Tarvisio, Italia

latitud: 46-30N, longitud: 013-35E, altitud: 777 m

Observación

El informe se hizo hace 58 minutos, a las 07:55 UTC
Viento 2 kt del sur
Temperatura -5°C
Humedad 86%
Presión 1023 hPa
Visibilidad 10 km o más
sin nubes por debajo de 1500 m y sin presencia de cumulonimbus.

METAR: LIVO 070755Z 18002KT CAVOK M05/M07 Q1023 RMK SKC VIS MIN 9999

Hora: 09:53 (08:53 UTC)


TAF: falta

Observaciones y pronósticos meteorológicos de más de 4000 aeropuertos (mensajes METAR y TAF).

Los puntos amarillos y rojos representan las estaciones disponibles.

Ponga el ratón en el punto deseado para ver el nombre de la estación.

Haga clic para ver las observaciones y los pronósticos meteorológicos.

Para cambiar el mapa : haga clic en los botones verdes con una cruz de color negro para hacer un zoom, en el botón verde con un guión para alejar o en las flechas verdes para mapas adyacentes.


METAR-TAF: